EW2642 Weather Reports


Display with metric or nautical units.
time (UTC)temp
F
wind
direction
speed
MPH
gust
MPH
rain 1hr
in
rain 24hr
in
rain mn
in
humidity
%
barometer
mb
20260504050016 63 323 8.0 14.0 0.00 0.00 0.00 30 1012.4
20260504044515 63 350 9.0 14.0 0.00 0.00 0.00 30 1012.2
20260504043027 63 329 7.0 12.0 0.00 0.00 0.00 32 1012.2
20260504041529 63 311 5.0 10.0 0.00 0.00 0.00 33 1012.1
20260504040031 61 333 3.0 8.0 0.00 0.00 0.00 35 1012.0
20260504034539 62 342 2.0 4.0 0.00 0.00 0.00 34 1011.8
20260504033030 64 349 2.0 4.0 0.00 0.00 0.00 29 1011.6
20260504031528 64 352 1.0 3.0 0.00 0.00 0.00 31 1011.6
20260504030039 65 360 1.0 3.0 0.00 0.00 0.00 30 1011.4
20260504024515 67 33 0.0 2.0 0.00 0.00 0.00 28 1011.5
20260504023012 68 42 1.0 4.0 0.00 0.00 0.00 28 1011.4
20260504021514 69 82 2.0 5.0 0.00 0.00 0.00 26 1011.4
20260504020015 71 38 3.0 9.0 0.00 0.00 0.00 24 1011.4
20260504014517 72 67 4.0 9.0 0.00 0.00 0.00 24 1011.4
20260504013011 72 71 2.0 9.0 0.00 0.00 0.00 25 1011.5
20260504011515 74 56 3.0 9.0 0.00 0.00 0.00 23 1011.6
20260504010010 72 98 5.0 11.0 0.00 0.00 0.00 24 1011.6
20260504004511 71 102 3.0 6.0 0.00 0.00 0.00 26 1011.9
20260504003011 71 61 3.0 8.0 0.00 0.00 0.00 23 1012.0
20260504001520 72 74 3.0 10.0 0.00 0.00 0.00 23 1012.2
20260504000012 72 48 2.0 5.0 0.00 0.00 0.00 22 1012.2
20260503234515 72 352 5.0 11.0 0.00 0.00 0.00 22 1012.4
20260503233014 73 293 4.0 11.0 0.00 0.00 0.00 22 1012.4
20260503231518 76 144 3.0 13.0 0.00 0.00 0.00 20 1012.4
20260503230024 76 342 5.0 11.0 0.00 0.00 0.00 19 1012.7
20260503224515 75 128 3.0 11.0 0.00 0.00 0.00 20 1012.8
20260503223022 76 44 4.0 10.0 0.00 0.00 0.00 20 1012.9
20260503221515 76 52 6.0 12.0 0.00 0.00 0.00 19 1013.1
20260503220035 75 120 6.0 15.0 0.00 0.00 0.00 18 1013.3
20260503214525 76 113 9.0 14.0 0.00 0.00 0.00 18 1013.4
20260503213016 76 97 8.0 14.0 0.00 0.00 0.00 18 1013.7
20260503211521 75 103 8.0 13.0 0.00 0.00 0.00 20 1013.8
20260503210018 75 5 6.0 15.0 0.00 0.00 0.00 18 1014.1
20260503204513 74 168 2.0 15.0 0.00 0.00 0.00 18 1014.2
20260503203022 75 108 6.0 13.0 0.00 0.00 0.00 21 1014.4
20260503201512 75 67 7.0 12.0 0.00 0.00 0.00 21 1014.5
20260503200016 74 90 6.0 11.0 0.00 0.00 0.00 23 1014.8
20260503194520 73 97 8.0 16.0 0.00 0.00 0.00 25 1015.1
20260503193015 73 80 4.0 11.0 0.00 0.00 0.00 25 1015.3
20260503191513 72 147 3.0 12.0 0.00 0.00 0.00 25 1015.6
20260503190015 72 102 8.0 13.0 0.00 0.00 0.00 23 1015.8
20260503184529 72 107 7.0 13.0 0.00 0.00 0.00 24 1015.9
20260503183038 71 107 5.0 11.0 0.00 0.00 0.00 27 1016.1
20260503181529 70 107 7.0 14.0 0.00 0.00 0.00 25 1016.2
20260503180032 70 149 5.0 11.0 0.00 0.00 0.00 24 1016.4
20260503174520 69 126 3.0 10.0 0.00 0.00 0.00 24 1016.4
20260503173016 68 136 5.0 11.0 0.00 0.00 0.00 24 1016.6
20260503171519 67 99 4.0 9.0 0.00 0.00 0.00 25 1016.6
20260503081516 56 360 3.0 5.0 0.00 0.00 0.00 39 1017.0
20260503071522 56 5 1.0 3.0 0.00 0.00 0.00 40 1017.3